Hourly Data Report for September 01, 2017

All times are specified in Local Standard Time (LST). Add 1 hour to adjust for Daylight Saving Time where and when it is observed.

CHARLOTTETOWN A
PRINCE EDWARD ISLAND

46°17'21.000" N
63°07'09.000" W
48.50 m
8300301
71706
YYG

Download Data

Hourly Data (September 2017)
Hourly Data Report for September 1, 2017
Temp Definition
°C
Dew Point Temp Definition
°C
Rel Hum Definition
%
Wind Dir Definition
10's deg

Wind Spd Definition
km/h
Visibility Definition
km
Stn Press Definition
kPa
Hmdx Definition


Wind Chill Definition


Weather Definition


TIME
00:00 Legend Double Dagger 12.3 10.2 87 28 13 24.1 99.79     LegendNANA
01:00 Legend Double Dagger 12.3 9.8 85 26 7 24.1 99.83     LegendNANA
02:00 Legend Double Dagger 12.3 9.3 82 28 13 24.1 99.83     Mainly Clear
03:00 Legend Double Dagger 10.9 7.5 80 31 12 24.1 99.87     LegendNANA
04:00 Legend Double Dagger 10.2 7.0 81 28 11 24.1 99.90     LegendNANA
05:00 Legend Double Dagger 9.0 6.5 84 28 5 24.1 99.94     Mainly Clear
06:00 Legend Double Dagger 9.6 6.0 78 28 5 24.1 99.96     LegendNANA
07:00 Legend Double Dagger 10.6 7.0 79 25 9 24.1 99.98     LegendNANA
08:00 Legend Double Dagger 12.7 9.1 79 27 9 24.1 99.99     Mostly Cloudy
09:00 Legend Double Dagger 13.6 9.2 74 27 16 24.1 99.99     LegendNANA
10:00 Legend Double Dagger 13.2 7.4 68 28 27 24.1 100.01     LegendNANA
11:00 Legend Double Dagger 13.7 6.4 61 28 18 24.1 100.01     Mostly Cloudy
12:00 Legend Double Dagger 13.2 6.3 63 28 16 24.1 100.02     LegendNANA
13:00 Legend Double Dagger 13.0 6.9 66 29 18 24.1 100.01     Rain Showers
14:00 Legend Double Dagger 14.6 9.0 69 25 11 24.1 99.97     Rain Showers
15:00 Legend Double Dagger 14.1 7.2 63 23 18 24.1 99.96     LegendNANA
16:00 Legend Double Dagger 14.1 7.0 62 25 12 24.1 99.95     LegendNANA
17:00 Legend Double Dagger 14.3 5.8 56 29 24 24.1 100.00     Mostly Cloudy
18:00 Legend Double Dagger 12.1 5.5 64 27 13 24.1 100.08     LegendNANA
19:00 Legend Double Dagger 11.7 6.0 68 26 11 24.1 100.11     LegendNANA
20:00 Legend Double Dagger 11.1 5.8 70 28 12 24.1 100.17     Mostly Cloudy
21:00 Legend Double Dagger 10.0 6.9 81 25 14 24.1 100.23     LegendNANA
22:00 Legend Double Dagger 9.2 7.2 87 25 11 24.1 100.23     LegendNANA
23:00 Legend Double Dagger 9.1 6.9 86 25 11 24.1 100.24     Mostly Cloudy

Notes on Data Quality.

Legend

  • E = Estimated
  • M = Missing
  • NA = Not Available
  • ‡ = Partner data that is not subject to review by the National Climate Archives
Date modified: